TimeCST,TemperatureF,Dew PointF,Humidity,Sea Level PressureIn,VisibilityMPH,Wind Direction,Wind SpeedMPH,Gust SpeedMPH,PrecipitationIn,Events,Conditions,WindDirDegrees,DateUTC
12:15 AM,68.0,42.8,40,30.13,10.0,East,13.8,-,N/A,,Clear,80,2014-01-12 06:15:00
12:35 AM,68.0,44.6,43,30.12,10.0,East,13.8,-,N/A,,Clear,80,2014-01-12 06:35:00
12:55 AM,68.0,44.6,43,30.12,10.0,East,13.8,-,N/A,,Clear,80,2014-01-12 06:55:00
1:15 AM,68.0,44.6,43,30.12,10.0,East,12.7,-,N/A,,Clear,80,2014-01-12 07:15:00
1:35 AM,68.0,44.6,43,30.12,10.0,East,10.4,-,N/A,,Clear,90,2014-01-12 07:35:00
1:55 AM,68.0,44.6,43,30.12,10.0,East,11.5,-,N/A,,Clear,90,2014-01-12 07:55:00
2:15 AM,68.0,42.8,40,30.12,10.0,East,11.5,-,N/A,,Clear,80,2014-01-12 08:15:00
2:35 AM,68.0,42.8,40,30.11,10.0,East,11.5,-,N/A,,Clear,90,2014-01-12 08:35:00
2:55 AM,68.0,42.8,40,30.11,10.0,East,12.7,-,N/A,,Clear,80,2014-01-12 08:55:00
3:15 AM,68.0,42.8,40,30.12,10.0,East,13.8,-,N/A,,Clear,80,2014-01-12 09:15:00
3:35 AM,68.0,44.6,43,30.12,10.0,East,12.7,-,N/A,,Clear,90,2014-01-12 09:35:00
3:55 AM,68.0,44.6,43,30.11,10.0,East,12.7,-,N/A,,Clear,80,2014-01-12 09:55:00
4:15 AM,68.0,44.6,43,30.11,10.0,East,11.5,-,N/A,,Clear,90,2014-01-12 10:15:00
4:35 AM,68.0,42.8,40,30.11,10.0,East,15.0,-,N/A,,Clear,100,2014-01-12 10:35:00
4:55 AM,68.0,42.8,40,30.11,10.0,East,12.7,-,N/A,,Clear,100,2014-01-12 10:55:00
5:15 AM,68.0,44.6,43,30.10,10.0,East,13.8,-,N/A,,Clear,90,2014-01-12 11:15:00
5:35 AM,68.0,41.0,37,30.10,10.0,East,16.1,-,N/A,,Clear,100,2014-01-12 11:35:00
5:55 AM,68.0,42.8,40,30.10,10.0,East,17.3,-,N/A,,Clear,100,2014-01-12 11:55:00
6:15 AM,68.0,44.6,43,30.11,10.0,ESE,16.1,-,N/A,,Clear,110,2014-01-12 12:15:00
6:35 AM,68.0,42.8,40,30.12,10.0,ESE,16.1,-,N/A,,Clear,120,2014-01-12 12:35:00
6:55 AM,68.0,42.8,40,30.12,10.0,ESE,15.0,-,N/A,,Clear,120,2014-01-12 12:55:00
7:15 AM,68.0,44.6,43,30.13,10.0,ESE,15.0,-,N/A,,Clear,120,2014-01-12 13:15:00
7:35 AM,69.8,44.6,40,30.14,10.0,SE,15.0,-,N/A,,Clear,130,2014-01-12 13:35:00
7:55 AM,69.8,44.6,40,30.15,10.0,SE,13.8,-,N/A,,Clear,130,2014-01-12 13:55:00
8:15 AM,69.8,46.4,43,30.15,10.0,SE,13.8,-,N/A,,Clear,140,2014-01-12 14:15:00
8:35 AM,69.8,44.6,40,30.16,10.0,SE,15.0,-,N/A,,Clear,130,2014-01-12 14:35:00
8:55 AM,69.8,46.4,43,30.16,10.0,SE,16.1,-,N/A,,Clear,140,2014-01-12 14:55:00
9:15 AM,71.6,46.4,41,30.16,10.0,SE,15.0,-,N/A,,Clear,130,2014-01-12 15:15:00
9:35 AM,71.6,46.4,41,30.16,10.0,SE,16.1,-,N/A,,Clear,130,2014-01-12 15:35:00
9:55 AM,71.6,46.4,41,30.17,10.0,SE,16.1,-,N/A,,Clear,140,2014-01-12 15:55:00
10:15 AM,71.6,46.4,41,30.16,10.0,SE,17.3,-,N/A,,Clear,140,2014-01-12 16:15:00
10:35 AM,71.6,48.2,43,30.16,10.0,SE,19.6,-,N/A,,Clear,140,2014-01-12 16:35:00
10:55 AM,69.8,48.2,46,30.15,10.0,SSE,19.6,-,N/A,,Clear,150,2014-01-12 16:55:00
11:15 AM,71.6,48.2,43,30.14,10.0,SE,19.6,-,N/A,,Clear,140,2014-01-12 17:15:00
11:35 AM,71.6,50.0,46,30.12,10.0,SSE,20.7,-,N/A,,Clear,150,2014-01-12 17:35:00
11:55 AM,71.6,50.0,46,30.11,10.0,SE,19.6,-,N/A,,Clear,140,2014-01-12 17:55:00
12:15 PM,71.6,50.0,46,30.10,10.0,SE,19.6,-,N/A,,Clear,140,2014-01-12 18:15:00
12:35 PM,71.6,50.0,46,30.09,10.0,SSE,17.3,-,N/A,,Clear,150,2014-01-12 18:35:00
12:55 PM,71.6,51.8,50,30.07,10.0,SSE,18.4,-,N/A,,Clear,150,2014-01-12 18:55:00
1:15 PM,71.6,51.8,50,30.06,10.0,SSE,19.6,-,N/A,,Clear,160,2014-01-12 19:15:00
1:35 PM,69.8,53.6,56,30.06,10.0,South,19.6,-,N/A,,Clear,180,2014-01-12 19:35:00
1:55 PM,71.6,53.6,53,30.05,10.0,SSE,18.4,-,N/A,,Clear,150,2014-01-12 19:55:00
2:15 PM,71.6,55.4,57,30.05,10.0,SSE,16.1,-,N/A,,Clear,150,2014-01-12 20:15:00
2:35 PM,71.6,55.4,57,30.05,10.0,SSE,18.4,-,N/A,,Clear,160,2014-01-12 20:35:00
2:55 PM,69.8,57.2,64,30.05,10.0,South,18.4,-,N/A,,Clear,170,2014-01-12 20:55:00
3:15 PM,69.8,57.2,64,30.05,10.0,South,18.4,-,N/A,,Clear,170,2014-01-12 21:15:00
3:35 PM,71.6,59.0,64,30.04,10.0,SSE,16.1,-,N/A,,Clear,160,2014-01-12 21:35:00
3:55 PM,71.6,59.0,64,30.03,10.0,SSE,18.4,-,N/A,,Clear,150,2014-01-12 21:55:00
4:15 PM,69.8,59.0,68,30.03,10.0,SSE,17.3,-,N/A,,Clear,160,2014-01-12 22:15:00
4:35 PM,69.8,59.0,68,30.03,10.0,SSE,16.1,-,N/A,,Clear,150,2014-01-12 22:35:00
4:55 PM,69.8,59.0,68,30.03,10.0,SSE,17.3,-,N/A,,Clear,150,2014-01-12 22:55:00
5:15 PM,69.8,60.8,73,30.03,10.0,SSE,16.1,-,N/A,,Clear,160,2014-01-12 23:15:00
5:35 PM,69.8,60.8,73,30.03,10.0,SSE,16.1,-,N/A,,Clear,160,2014-01-12 23:35:00
5:55 PM,69.8,60.8,73,30.02,10.0,SSE,20.7,-,N/A,,Clear,150,2014-01-12 23:55:00
6:15 PM,69.8,62.6,78,30.01,10.0,SSE,20.7,-,N/A,,Clear,150,2014-01-13 00:15:00
6:35 PM,69.8,62.6,78,30.02,10.0,SSE,23.0,-,N/A,,Partly Cloudy,160,2014-01-13 00:35:00
6:55 PM,69.8,62.6,78,30.03,10.0,South,21.9,-,N/A,,Scattered Clouds,170,2014-01-13 00:55:00
7:15 PM,69.8,62.6,78,30.03,10.0,South,23.0,-,N/A,,Scattered Clouds,170,2014-01-13 01:15:00
7:35 PM,69.8,62.6,78,30.04,10.0,South,21.9,-,N/A,,Scattered Clouds,170,2014-01-13 01:35:00
7:55 PM,69.8,64.4,83,30.06,10.0,South,19.6,-,N/A,,Partly Cloudy,180,2014-01-13 01:55:00
8:15 PM,69.8,64.4,83,30.05,10.0,SSE,20.7,-,N/A,,Partly Cloudy,160,2014-01-13 02:15:00
8:35 PM,69.8,64.4,83,30.05,10.0,SSE,21.9,-,N/A,,Partly Cloudy,160,2014-01-13 02:35:00
8:55 PM,69.8,64.4,83,30.05,9.0,SSE,20.7,-,N/A,,Scattered Clouds,160,2014-01-13 02:55:00
9:15 PM,69.8,64.4,83,30.05,10.0,SSE,21.9,-,N/A,,Mostly Cloudy,160,2014-01-13 03:15:00
9:35 PM,69.8,64.4,83,30.05,10.0,South,21.9,-,N/A,,Overcast,180,2014-01-13 03:35:00
9:55 PM,71.6,64.4,78,30.04,9.0,South,21.9,-,N/A,,Overcast,170,2014-01-13 03:55:00
10:15 PM,71.6,66.2,83,30.03,8.0,South,21.9,-,N/A,,Overcast,180,2014-01-13 04:15:00
10:35 PM,71.6,66.2,83,30.03,8.0,South,20.7,-,N/A,,Overcast,190,2014-01-13 04:35:00
10:55 PM,71.6,66.2,83,30.01,7.0,South,20.7,-,N/A,,Overcast,190,2014-01-13 04:55:00
11:15 PM,71.6,66.2,83,30.00,7.0,South,20.7,-,N/A,,Overcast,190,2014-01-13 05:15:00
11:35 PM,71.6,68.0,88,30.00,7.0,SSW,17.3,-,N/A,,Overcast,200,2014-01-13 05:35:00
11:55 PM,71.6,68.0,88,30.00,6.0,SSW,15.0,-,N/A,,Overcast,200,2014-01-13 05:55:00